Regional Weather Roundup
Issued by NWS

Home | Current Version | Previous Version | Text Only | Print | Product List | Glossary Off
Versions: 1 2 3 4 5 6 7 8 9 10 11 12 13 14 15 16 17 18 19 20 21 22 23 24 25 26 27 28 29 30 31 32 33 34 35 36 37 38 39 40 41 42 43 44 45 46 47 48 49 50

000
ASUS43 KFSD 151010
RWRSD

WEATHER ROUNDUP FOR SOUTH DAKOTA
NATIONAL WEATHER SERVICE SIOUX FALLS SD
400 AM CST FRI DEC 15 2017

NOTE: "FAIR" INDICATES FEW OR NO CLOUDS BELOW 12,000 FEET WITH NO
SIGNIFICANT WEATHER AND/OR OBSTRUCTIONS TO VISIBILITY.


SDZ001>005-009-010-012>017-151100-
NORTHWEST AND NORTH CENTRAL SOUTH DAKOTA

CITY           SKY/WX    TMP DP  RH WIND       PRES   REMARKS
BUFFALO          N/A     26  21  81 W14       29.81F WCI  14
FAITH            N/A     28  23  81 W9        29.91F WCI  19
MOBRIDGE       CLOUDY    30  23  75 NW7       29.89F WCI  23
$$

SDZ012>016-024>037-041>051-057-063-072>074-151100-
SOUTHWEST AND SOUTH CENTRAL SOUTH DAKOTA

CITY           SKY/WX    TMP DP  RH WIND       PRES   REMARKS
RAPID CTY ARPT CLOUDY    15   9  76 W5        29.95F WCI   8
PIERRE         CLOUDY    28  23  81 W10       29.96F WCI  19
CUSTER         CLOUDY    26  14  60 W10       29.93F WCI  16
ELLSWORTH AFB  CLOUDY    21  12  68 W5        29.93F WCI  14
PHILIP         PTCLDY    24  20  84 W12       29.99F WCI  13
PINE RIDGE     CLEAR     24  19  81 W7        30.02F WCI  16
SPEARFISH      FAIR      36  16  44 W17       29.92F
WINNER         FAIR      28  22  78 SW9       30.00F WCI  19
$$

SDZ004>011-016>023-039-040-151100-
NORTHEAST SOUTH DAKOTA

CITY           SKY/WX    TMP DP  RH WIND       PRES   REMARKS
ABERDEEN       CLOUDY    33  27  78 W8        29.93F WCI  26
WATERTOWN      CLOUDY    30  27  88 W9        29.90F WCI  22
SISSETON         N/A     28  27  96 N8        29.91S WCI  20
$$

SDZ017-020-022-023-036>040-048>070-151100-
SOUTHEAST SOUTH DAKOTA

CITY           SKY/WX    TMP DP  RH WIND       PRES   REMARKS
SIOUX FALLS    CLOUDY    31  27  85 W7        29.97F WCI  24
HURON          CLOUDY    33  27  78 W12       29.96F WCI  24
CHAMBERLAIN    CLEAR     29  27  92 W9        29.99F WCI  21
MITCHELL       PTCLDY    33  27  78 W13       29.99F WCI  24
YANKTON        CLOUDY    34  25  69 W14       30.02F WCI  25
$$

ABBREVIATIONS USED IN REMARKS
   TC - TEMPERATURE IN CELSIUS
  WCI - WIND CHILL INDEX
   HX - HEAT INDEX
  VSB - VISIBILITY





USA.gov is the U.S. government's official web portal to all federal, state and local government web resources and services.